Location: Alfords
(31.4624°N, 83.9238°W)
Time: 13:49:51
(UTC+00:00)

Envisat - Pass Details

Date: 26 September 2021
Orbit: 764 x 766 km, 98.2° (Epoch: 23 October)

Event Time Altitude Azimuth Distance (km) Brightness Sun altitude
Rises 10:04:20 0° 23° (NNE) 3,232 6.7 -18.3°
Reaches altitude 10° 10:06:49 10° 31° (NNE) 2,302 6.0 -17.8°
Maximum altitude 10:11:29 37° 98° (E) 1,181 4.6 -16.8°
Drops below altitude 10° 10:16:07 10° 165° (SSE) 2,290 5.5 -15.8°
Sets 10:18:34 0° 174° (S) 3,212 6.2 -15.3°
